Location: Clyde
(45.1830°S, 169.3170°E)
Time: 19:16:37
(UTC+13:00)

ISS - Pass Details

Date: 01 February 2019
Orbit: 403 x 411 km, 51.6° (Epoch: 22 February)

Event Time Altitude Azimuth Distance (km) Brightness Sun altitude
Exits shadow 05:19:38 21° 325° (NW) 999 -2.5 -12.3°
Maximum altitude 05:21:38 53° 35° (NE) 519 -3.4 -12.1°
Drops below altitude 10° 05:24:56 10° 113° (ESE) 1,499 0.4 -11.6°
Sets 05:27:03 0° 117° (ESE) 2,365 1.9 -11.3°
